DH0GMA Weather Reports


Display with metric or nautical units.
time (UTC)temp
F
wind
direction
speed
MPH
gust
MPH
rain 1hr
in
rain 24hr
in
rain mn
in
humidity
%
barometer
mb
20260905175012 71 265 0.0 2.0 0.00 0.04 0.04 69 1022.6
20260905174012 71 205 1.0 3.0 0.00 0.04 0.04 67 1022.4
20260905173012 72 221 0.0 2.0 0.00 0.04 0.04 66 1022.2
20260905172012 73 161 1.0 5.0 0.00 0.04 0.04 65 1022.0
20260905171011 74 145 1.0 4.0 0.00 0.04 0.04 63 1021.7
20260905170011 75 237 1.0 6.0 0.00 0.04 0.04 62 1021.7
20260905165011 76 146 2.0 8.0 0.00 0.04 0.04 60 1021.6
20260905164011 76 188 5.0 10.0 0.00 0.04 0.04 59 1021.6
20260905163011 76 185 2.0 8.0 0.00 0.04 0.04 62 1021.5
20260905162011 75 227 2.0 5.0 0.00 0.04 0.04 65 1021.4
20260905161010 75 219 1.0 6.0 0.00 0.04 0.04 63 1021.3
20260905160010 75 227 1.0 7.0 0.00 0.04 0.04 63 1021.3
20260905155010 76 127 2.0 7.0 0.00 0.04 0.04 61 1021.2
20260905153722 77 251 1.0 6.0 0.00 0.04 0.04 47 1021.1
20260905152724 79 191 2.0 8.0 0.00 0.04 0.04 45 1021.1
20260905151724 80 311 1.0 7.0 0.00 0.04 0.04 46 1021.1
20260905150724 80 300 6.0 8.0 0.00 0.04 0.04 44 1021.2
20260905145745 80 211 2.0 10.0 0.00 0.04 0.04 45 1021.0
20260905144744 80 319 2.0 9.0 0.00 0.04 0.04 46 1021.0
20260905143744 79 241 2.0 5.0 0.00 0.04 0.04 47 1021.1
20260905142744 79 49 2.0 7.0 0.00 0.04 0.04 47 1020.9
20260905141746 79 18 2.0 9.0 0.00 0.04 0.04 48 1021.0
20260905140746 78 173 2.0 8.0 0.00 0.04 0.04 53 1021.2
20260905135746 77 237 1.0 8.0 0.00 0.04 0.04 55 1021.1
20260905134745 77 148 4.0 9.0 0.00 0.04 0.04 53 1021.2
20260905133745 77 151 3.0 8.0 0.00 0.04 0.04 54 1021.1
20260905132745 77 189 3.0 9.0 0.00 0.04 0.04 54 1021.3
20260905131745 78 280 4.0 11.0 0.00 0.04 0.04 54 1021.2
20260905130745 77 326 3.0 9.0 0.00 0.04 0.04 55 1021.2
20260905125745 76 168 4.0 8.0 0.00 0.04 0.04 54 1021.1
20260905124745 76 260 3.0 8.0 0.00 0.04 0.04 56 1021.2
20260905123745 75 185 2.0 8.0 0.00 0.04 0.04 58 1021.1
20260905122744 75 222 2.0 10.0 0.00 0.04 0.04 58 1021.3
20260905121746 74 232 4.0 10.0 0.00 0.04 0.04 59 1021.2
20260905120746 74 143 1.0 8.0 0.00 0.04 0.04 63 1021.2
20260905115746 74 173 3.0 9.0 0.00 0.04 0.04 64 1021.3
20260905114746 73 298 2.0 5.0 0.00 0.04 0.04 66 1021.2
20260905113747 72 232 2.0 5.0 0.00 0.04 0.04 68 1021.5
20260905112747 71 227 2.0 8.0 0.00 0.04 0.04 69 1021.4
20260905111747 71 204 2.0 7.0 0.00 0.04 0.04 69 1021.5
20260905110747 71 264 2.0 9.0 0.00 0.04 0.04 70 1021.5
20260905105747 69 283 3.0 5.0 0.00 0.04 0.04 73 1021.5
20260905104747 69 121 3.0 7.0 0.00 0.04 0.04 72 1021.4
20260905103746 68 243 2.0 8.0 0.00 0.04 0.04 74 1021.3
20260905102746 67 241 2.0 6.0 0.00 0.04 0.04 77 1021.6
20260905101746 66 296 4.0 9.0 0.00 0.04 0.04 78 1021.4
20260905100746 67 218 5.0 12.0 0.00 0.04 0.04 77 1021.4
20260905095746 66 237 4.0 10.0 0.00 0.04 0.04 77 1021.3
20260905094747 66 181 5.0 9.0 0.00 0.04 0.04 78 1021.3
20260905093747 65 168 4.0 6.0 0.00 0.04 0.04 81 1021.3
20260905092747 65 251 3.0 7.0 0.00 0.04 0.04 79 1021.2
20260905091747 64 248 1.0 7.0 0.00 0.04 0.04 78 1021.1
20260905090747 63 168 1.0 4.0 0.00 0.04 0.04 84 1020.9
20260905085747 62 165 4.0 8.0 0.00 0.04 0.04 89 1021.0
20260905084747 62 218 3.0 8.0 0.00 0.04 0.04 91 1021.0
20260905083747 62 189 2.0 4.0 0.00 0.04 0.04 92 1020.9
20260905082746 61 208 2.0 4.0 0.00 0.04 0.04 92 1020.8
20260905081746 61 197 1.0 4.0 0.00 0.04 0.04 92 1020.6
20260905080746 61 210 0.0 2.0 0.00 0.04 0.04 92 1020.6
20260905075746 60 188 1.0 3.0 0.00 0.04 0.04 93 1020.6
20260905074746 60 183 0.0 2.0 0.01 0.04 0.04 93 1020.5
20260905073746 60 168 1.0 3.0 0.01 0.04 0.04 93 1020.6
20260905072745 60 98 1.0 2.0 0.01 0.04 0.04 93 1020.6
20260905071747 60 89 0.0 2.0 0.01 0.04 0.04 93 1020.4
20260905070747 60 89 0.0 2.0 0.01 0.04 0.04 93 1020.2
20260905065747 60 78 0.0 3.0 0.01 0.04 0.04 93 1020.1
20260905064747 59 156 1.0 3.0 0.00 0.03 0.03 92 1020.2
20260905063747 59 39 1.0 3.0 0.00 0.03 0.03 92 1020.4
20260905062747 59 39 0.0 4.0 0.00 0.03 0.03 92 1020.0
20260905061746 59 39 0.0 3.0 0.00 0.03 0.03 91 1020.0
20260905060746 59 39 0.0 1.0 0.01 0.03 0.03 91 1019.9
20260905055746 60 39 1.0 5.0 0.02 0.03 0.03 90 1019.9
20260905054746 60 31 0.0 4.0 0.03 0.03 0.03 90 1019.7
20260905053746 60 31 1.0 4.0 0.03 0.03 0.03 89 1019.7
20260905052745 61 61 2.0 4.0 0.03 0.03 0.03 87 1019.4
20260905051745 62 58 0.0 1.0 0.03 0.03 0.03 86 1019.2
20260905050745 63 58 0.0 0.0 0.02 0.02 0.02 84 1018.9
20260905045747 64 58 1.0 4.0 0.01 0.01 0.01 82 1018.6
20260905044747 64 74 1.0 7.0 0.00 0.00 0.00 80 1018.6
20260905043747 64 64 4.0 10.0 0.00 0.00 0.00 79 1018.4
20260905042747 65 8 1.0 5.0 0.00 0.00 0.00 80 1018.8
20260905041746 65 22 0.0 4.0 0.00 0.00 0.00 82 1018.5
20260905040746 65 17 0.0 3.0 0.00 0.00 0.00 81 1018.3
20260905035746 66 39 1.0 4.0 0.00 0.00 0.00 81 1018.2
20260905034746 66 7 0.0 3.0 0.00 0.00 0.00 80 1018.0
20260905033746 66 347 1.0 4.0 0.00 0.00 0.00 80 1017.9
20260905032746 66 343 0.0 4.0 0.00 0.00 0.00 80 1017.7
20260905031745 66 195 0.0 0.0 0.00 0.00 0.00 79 1017.5
20260905030745 66 195 0.0 0.0 0.00 0.00 0.00 79 1017.4
20260905025746 66 195 0.0 0.0 0.00 0.00 0.00 78 1017.3
20260905024746 66 195 0.0 0.0 0.00 0.00 0.00 78 1017.1
20260905023746 66 195 0.0 0.0 0.00 0.00 0.00 77 1016.8
20260905022746 67 195 0.0 0.0 0.00 0.00 0.00 77 1016.6
20260905021746 67 195 0.0 0.0 0.00 0.00 0.00 77 1016.7
20260905020745 67 195 0.0 0.0 0.00 0.00 0.00 76 1016.7
20260905015745 67 195 0.0 0.0 0.00 0.00 0.00 76 1016.7
20260905014747 67 195 0.0 0.0 0.00 0.00 0.00 75 1016.6
20260905013747 68 195 0.0 1.0 0.00 0.00 0.00 74 1016.6
20260905012747 68 195 0.0 2.0 0.00 0.00 0.00 74 1016.5
20260905011746 68 195 0.0 1.0 0.00 0.00 0.00 73 1016.4
20260905010747 68 194 2.0 3.0 0.00 0.00 0.00 73 1016.2
20260905005746 69 191 1.0 3.0 0.00 0.00 0.00 73 1016.1
20260905004746 69 188 2.0 3.0 0.00 0.00 0.00 73 1016.2
20260905003746 69 176 2.0 3.0 0.00 0.00 0.00 73 1016.0
20260905002746 69 161 2.0 4.0 0.00 0.00 0.00 72 1015.9
20260905001746 69 183 1.0 3.0 0.00 0.00 0.00 72 1015.9
20260905000746 70 164 1.0 3.0 0.00 0.00 0.00 71 1015.9
20260904235746 70 158 2.0 4.0 0.00 0.00 0.00 71 1016.1
20260904234745 70 227 2.0 3.0 0.00 0.00 0.00 71 1016.1
20260904233745 70 291 0.0 0.0 0.00 0.00 0.00 71 1016.0
20260904232745 70 291 0.0 1.0 0.00 0.00 0.00 70 1016.0
20260904231747 71 291 0.0 2.0 0.00 0.00 0.00 69 1015.8
20260904230747 71 291 2.0 3.0 0.00 0.00 0.00 69 1015.7
20260904225747 71 283 0.0 2.0 0.00 0.00 0.00 68 1015.7
20260904224747 72 227 0.0 1.0 0.00 0.00 0.00 67 1015.5
20260904223746 72 221 0.0 3.0 0.00 0.00 0.00 66 1015.4
20260904222746 72 183 1.0 3.0 0.00 0.00 0.00 66 1015.1
20260904221746 73 173 1.0 3.0 0.00 0.00 0.00 66 1015.2
20260904220746 73 197 1.0 2.0 0.00 0.00 0.00 65 1015.2
20260904215746 73 205 0.0 3.0 0.00 0.00 0.00 65 1015.2
20260904214745 73 165 2.0 3.0 0.00 0.00 0.00 65 1015.1
20260904213745 72 185 2.0 3.0 0.00 0.00 0.00 65 1014.9
20260904212745 72 116 1.0 3.0 0.00 0.00 0.00 66 1015.0
20260904211747 72 142 1.0 2.0 0.00 0.00 0.00 66 1014.9
20260904210747 72 197 0.0 2.0 0.00 0.00 0.00 65 1014.9
20260904205747 73 198 1.0 2.0 0.00 0.00 0.00 64 1014.8
20260904204746 73 196 1.0 3.0 0.00 0.00 0.00 63 1014.9
20260904203746 74 199 1.0 2.0 0.00 0.00 0.00 61 1015.0
20260904202746 74 196 1.0 3.0 0.00 0.00 0.00 60 1015.0
20260904201746 74 180 1.0 4.0 0.00 0.00 0.00 60 1015.0
20260904200746 75 201 2.0 4.0 0.00 0.00 0.00 59 1014.9
20260904195746 75 191 2.0 4.0 0.00 0.00 0.00 59 1014.9
20260904194745 75 196 1.0 3.0 0.00 0.00 0.00 59 1014.8
20260904193745 76 165 1.0 3.0 0.00 0.00 0.00 58 1014.9
20260904192745 76 157 1.0 2.0 0.00 0.00 0.00 56 1014.8
20260904191747 76 163 1.0 2.0 0.00 0.00 0.00 56 1014.7
20260904190747 77 163 0.0 2.0 0.00 0.00 0.00 55 1014.6
20260904185746 77 166 2.0 3.0 0.00 0.00 0.00 54 1014.5
20260904184745 78 167 2.0 4.0 0.00 0.00 0.00 53 1014.3
20260904183745 78 197 1.0 3.0 0.00 0.00 0.00 52 1014.2
20260904182745 79 215 1.0 2.0 0.00 0.00 0.00 52 1014.1
20260904181747 80 215 0.0 3.0 0.00 0.00 0.00 50 1014.0
20260904180747 80 214 0.0 2.0 0.00 0.00 0.00 50 1013.7
20260904175746 81 120 0.0 3.0 0.00 0.00 0.00 49 1013.7